User: anonymous   Login
Location: Noordwijk
(52.2400°N, 4.4500°E)
Time: 08:41:05
(UTC+00:00)
Language:

HuskySat-1 - Orbit

View from above orbital plane
View from above orbital plane
View from above satellite
View from above satellite

Ground track
Ground track

The orbit data is extracted from the following two-line orbital elements,

1 45117U 19071G   22330.29273881  .00094780  00000-0  94260-3 0  9998
2 45117  51.6317 327.4078 0011105  55.5652 304.6391 15.64873832158603
Epoch (UTC): 26 November 2022 07:01:32
Eccentricity: 0.0011105
inclination: 51.6317°
perigee height: 366 km
apogee height: 381 km
right ascension of ascending node: 327.4078°
argument of perigee: 55.5652°
revolutions per day: 15.64873832
mean anomaly at epoch: 304.6391°
orbit number at epoch: 15860

The dashed part of the orbit path shows where the satellite is in the earth's shadow,  

DLR